EW8711 Mullica Hill NJ US current weather conditions

sailwx.info

Wind from 198

Air temperature 23.9° C
Dewpoint 22.5° C

Last reported at 2020-Jul-10 04:08 UTC.
Time now 2020-Jul-10 04:55 UTC

Location: N 39°41' W 075°13'.
View on Google Maps.

See reports from other nearby stations

  
Tides and Currents Weather Stations Pressure Air Temp Water Temp Dewpoint Dewpoint Depression Visibility Wind Speed Wind Dir Waves Ship Positions
date/time (UTC)wind fromknots sea level pressurealtimeterstation pressurevisibilityair tempwater tempwave heightnotes
2020-Jul-10 04:08 198 23.9
2020-Jul-10 03:58 198 23.9
2020-Jul-10 03:48 198 23.9
2020-Jul-10 03:38 198 23.9
2020-Jul-10 03:27 198 23.9
2020-Jul-10 03:17 198 23.9
2020-Jul-10 03:07 198 24.4
2020-Jul-10 02:57 200 24.4
2020-Jul-10 02:47 200 24.4
2020-Jul-10 02:37 200 24.4
2020-Jul-10 02:27 200 24.4
2020-Jul-10 02:17 200 24.4
2020-Jul-10 02:07 200 24.4
2020-Jul-10 01:56 200 24.4
2020-Jul-10 01:46 200 24.4
2020-Jul-10 01:36 200 25.0
2020-Jul-10 01:26 200 25.0
2020-Jul-10 01:16 200 25.6
2020-Jul-10 01:06 200 25.6
2020-Jul-10 00:56 200 25.6
2020-Jul-10 00:46 200 26.1
2020-Jul-10 00:36 200 26.1
2020-Jul-10 00:26 200 26.7
2020-Jul-10 00:16 200 26.7
2020-Jul-10 00:06 204 27.2
2020-Jul-09 23:56 209 27.2
2020-Jul-09 23:46 214 27.8
2020-Jul-09 23:36 214 27.8
2020-Jul-09 23:26 215 28.3
2020-Jul-09 23:16 206 28.3
2020-Jul-09 23:05 211 28.3
2020-Jul-09 22:55 208 28.3
2020-Jul-09 22:45 211 28.9
2020-Jul-09 22:35 205 28.9
2020-Jul-09 22:25 218 29.4
2020-Jul-09 22:15 219 29.4
2020-Jul-09 22:05 203 30.0
2020-Jul-09 21:55 200 30.0
2020-Jul-09 21:45 085 0 gusting 2 30.0
2020-Jul-09 21:35 214 30.6
2020-Jul-09 21:25 207 30.6
2020-Jul-09 21:15 202 31.1
2020-Jul-09 21:05 218 1 gusting 3 32.2
2020-Jul-09 20:55 208 0 gusting 3 32.2
2020-Jul-09 20:45 218 1 gusting 2 32.2
2020-Jul-09 20:35 037 0 gusting 2 31.7
2020-Jul-09 20:25 224 31.1
2020-Jul-09 20:15 213 31.7
2020-Jul-09 20:05 205 33.3
2020-Jul-09 19:55 219 32.8
2020-Jul-09 19:45 214 0 gusting 1 32.8
2020-Jul-09 19:35 217 32.2
2020-Jul-09 19:25 219 0 gusting 1 32.2
2020-Jul-09 19:15 032 0 gusting 1 31.7
2020-Jul-09 19:05 219 31.1
2020-Jul-09 18:54 228 32.2
2020-Jul-09 18:44 239 32.8
2020-Jul-09 18:34 238 32.8
2020-Jul-09 18:24 213 32.2
2020-Jul-09 18:14 257 32.8
2020-Jul-09 18:04 226 32.8
2020-Jul-09 17:54 202 32.2
2020-Jul-09 17:44 220 1 gusting 1 31.7
2020-Jul-09 17:34 213 31.7
2020-Jul-09 17:24 223 31.1
2020-Jul-09 17:14 241 30.6
2020-Jul-09 17:04 210 31.1
2020-Jul-09 16:54 204 30.6
2020-Jul-09 16:44 232 30.0
2020-Jul-09 16:34 161 2 gusting 2 30.6
2020-Jul-09 16:23 148 0 gusting 2 29.4
2020-Jul-09 16:13 209 30.0
2020-Jul-09 16:03 178 30.0
2020-Jul-09 15:53 211 29.4
2020-Jul-09 15:43 239 29.4
2020-Jul-09 15:33 255 0 gusting 3 28.9
2020-Jul-09 15:23 186 0 gusting 1 28.9
2020-Jul-09 15:13 205 28.9
2020-Jul-09 15:03 212 0 gusting 1 28.3
2020-Jul-09 14:53 193 28.3
2020-Jul-09 14:43 279 28.3
2020-Jul-09 14:33 220 27.8
2020-Jul-09 14:23 221 27.8
2020-Jul-09 14:12 208 27.2
2020-Jul-09 14:02 229 27.2
2020-Jul-09 13:53 253 26.7
2020-Jul-09 13:42 259 26.1
2020-Jul-09 13:32 252 25.6
2020-Jul-09 13:22 252 25.6
2020-Jul-09 13:12 252 25.0
2020-Jul-09 13:02 249 24.4
2020-Jul-09 12:52 249 24.4
2020-Jul-09 12:42 248 23.9
2020-Jul-09 12:32 247 23.9
2020-Jul-09 12:22 247 23.3
2020-Jul-09 12:12 247 23.3
2020-Jul-09 12:02 247 23.3
2020-Jul-09 11:52 247 23.3
2020-Jul-09 11:42 247 23.3
2020-Jul-09 11:32 247 22.8
2020-Jul-09 11:21 247 22.8
2020-Jul-09 11:11 247 22.8
2020-Jul-09 11:01 244 22.8
2020-Jul-09 10:51 242 22.8
2020-Jul-09 10:41 240 22.8
2020-Jul-09 10:31 240 22.8
2020-Jul-09 10:21 240 22.8
2020-Jul-09 10:11 240 22.8
2020-Jul-09 10:01 233 22.8
2020-Jul-09 09:51 233 22.8
2020-Jul-09 09:41 233 22.8
2020-Jul-09 09:31 233 22.8
2020-Jul-09 09:21 233 22.8
2020-Jul-09 09:11 233 22.8
2020-Jul-09 09:01 233 22.8
2020-Jul-09 08:51 233 22.2
2020-Jul-09 08:41 233 22.2
2020-Jul-09 08:31 233 22.2
2020-Jul-09 08:21 233 22.2
2020-Jul-09 08:11 233 22.2
2020-Jul-09 08:00 231 22.2
2020-Jul-09 07:50 231 22.2
2020-Jul-09 07:40 231 22.8
2020-Jul-09 07:30 231 22.2
2020-Jul-09 07:20 231 22.2
2020-Jul-09 07:10 231 22.8
2020-Jul-09 07:00 231 22.8
2020-Jul-09 06:50 231 22.8
2020-Jul-09 06:40 231 22.2
2020-Jul-09 06:30 231 22.8
2020-Jul-09 06:20 231 22.8
2020-Jul-09 06:10 231 22.8
2020-Jul-09 06:00 231 22.8
2020-Jul-09 05:49 231 22.8
2020-Jul-09 05:39 231 22.8
2020-Jul-09 05:29 231 22.8
2020-Jul-09 05:19 231 22.8
2020-Jul-09 05:09 231 22.8
2020-Jul-09 04:59 231 22.8
2020-Jul-09 04:49 231 23.3
2020-Jul-09 04:39 231 23.3
2020-Jul-09 04:29 231 23.3
2020-Jul-09 04:19 231 23.3
2020-Jul-09 04:09 231 23.9
2020-Jul-09 03:59 231 23.9
2020-Jul-09 03:49 230 23.9
2020-Jul-09 03:39 230 23.9
2020-Jul-09 03:29 230 23.9
2020-Jul-09 03:18 229 24.4
2020-Jul-09 03:08 218 24.4
2020-Jul-09 02:58 219 24.4
2020-Jul-09 02:48 218 24.4
2020-Jul-09 02:38 206 24.4
2020-Jul-09 02:28 206 24.4
2020-Jul-09 02:18 230 25.0
2020-Jul-09 02:08 230 25.0
2020-Jul-09 01:58 229 25.0
2020-Jul-09 01:48 230 25.0
2020-Jul-09 01:38 230 25.0
2020-Jul-09 01:28 230 25.0
2020-Jul-09 01:18 230 25.6
2020-Jul-09 01:07 231 25.6
2020-Jul-09 00:57 230 25.6
2020-Jul-09 00:47 230 26.1
2020-Jul-09 00:37 230 26.1
2020-Jul-09 00:27 230 26.1
2020-Jul-09 00:17 230 26.7
2020-Jul-09 00:07 230 26.7
2020-Jul-08 23:57 230 26.7
2020-Jul-08 23:47 227 27.2
2020-Jul-08 23:37 206 27.2
2020-Jul-08 23:27 206 27.2
2020-Jul-08 23:17 206 27.8
2020-Jul-08 23:06 206 27.8
2020-Jul-08 22:56 206 28.3
2020-Jul-08 22:46 206 28.3
2020-Jul-08 22:36 206 28.9
2020-Jul-08 22:26 205 28.9
2020-Jul-08 22:16 210 29.4
2020-Jul-08 22:06 214 29.4
2020-Jul-08 21:56 214 30.0
2020-Jul-08 21:46 265 30.6
2020-Jul-08 21:36 222 31.1
2020-Jul-08 21:26 223 0 gusting 3 31.1
2020-Jul-08 21:16 212 31.1
2020-Jul-08 21:06 206 31.7
2020-Jul-08 20:56 259 31.1
2020-Jul-08 20:46 295 31.7
2020-Jul-08 20:36 223 31.1
2020-Jul-08 20:26 221 0 gusting 2 31.1
2020-Jul-08 20:16 216 31.7
2020-Jul-08 20:06 233 31.7
2020-Jul-08 19:55 214 1 gusting 2 32.2
2020-Jul-08 19:45 216 1 gusting 3 31.7
2020-Jul-08 19:40 180 1 gusting 2 31.7
2020-Jul-08 19:25 229 31.7
2020-Jul-08 19:20 216 0 gusting 3 31.7
2020-Jul-08 19:05 224 31.1
2020-Jul-08 18:55 180 0 gusting 2 31.1
2020-Jul-08 18:45 215 31.1
2020-Jul-08 18:35 215 31.1
2020-Jul-08 18:25 211 0 gusting 2 31.1
2020-Jul-08 18:15 206 31.1
2020-Jul-08 18:05 223 31.1
2020-Jul-08 17:55 318 0 gusting 3 31.1
2020-Jul-08 17:45 211 31.1
2020-Jul-08 17:35 338 2 gusting 3 30.6
2020-Jul-08 17:25 218 30.6
2020-Jul-08 17:15 262 2 gusting 3 30.6
2020-Jul-08 17:05 209 1 gusting 2 30.6
2020-Jul-08 16:54 216 3 gusting 3 30.0
2020-Jul-08 16:44 223 30.0
2020-Jul-08 16:34 264 0 gusting 5 30.0
2020-Jul-08 16:24 200 29.4
2020-Jul-08 16:14 267 0 gusting 3 29.4
2020-Jul-08 16:04 185 1 gusting 3 29.4
2020-Jul-08 15:54 209 0 gusting 3 29.4
2020-Jul-08 15:44 219 29.4
2020-Jul-08 15:34 221 0 gusting 3 29.4
2020-Jul-08 15:23 233 28.9
2020-Jul-08 15:13 165 2 gusting 3 28.3
2020-Jul-08 15:03 212 28.3
2020-Jul-08 14:53 201 28.3
2020-Jul-08 14:43 234 27.2
2020-Jul-08 14:33 195 27.8
2020-Jul-08 14:23 194 27.2
2020-Jul-08 14:13 206 26.7
2020-Jul-08 14:03 218 26.7
2020-Jul-08 13:53 222 26.7
2020-Jul-08 13:43 197 26.7
2020-Jul-08 13:33 197 26.1
2020-Jul-08 13:22 198 25.6
2020-Jul-08 13:12 198 25.6
2020-Jul-08 13:02 182 25.0
2020-Jul-08 12:52 205 25.0
2020-Jul-08 12:42 202 25.0
2020-Jul-08 12:32 205 25.0
2020-Jul-08 12:22 182 24.4
2020-Jul-08 12:12 210 24.4
2020-Jul-08 12:02 214 23.9
2020-Jul-08 11:52 214 23.9
2020-Jul-08 11:42 214 23.9
2020-Jul-08 11:32 214 23.3
2020-Jul-08 11:22 214 23.3
2020-Jul-08 11:12 214 23.3
2020-Jul-08 11:02 214 23.3
2020-Jul-08 10:52 214 22.8
2020-Jul-08 10:42 215 22.8
2020-Jul-08 10:31 215 22.8
2020-Jul-08 10:21 215 22.8
2020-Jul-08 10:11 215 22.8
2020-Jul-08 10:01 213 22.8
2020-Jul-08 09:51 213 22.8
2020-Jul-08 09:41 213 22.8
2020-Jul-08 09:31 213 22.8
2020-Jul-08 09:21 213 22.8
2020-Jul-08 09:11 213 22.8
2020-Jul-08 09:01 213 22.8
2020-Jul-08 08:51 213 22.8
2020-Jul-08 08:41 213 22.8
2020-Jul-08 08:31 213 22.8
2020-Jul-08 08:21 213 22.8
2020-Jul-08 08:11 213 22.8
2020-Jul-08 08:01 213 22.8
2020-Jul-08 07:51 213 22.8
2020-Jul-08 07:40 214 22.8
2020-Jul-08 07:30 214 22.8
2020-Jul-08 07:20 214 22.8
2020-Jul-08 07:10 214 22.8
2020-Jul-08 07:00 214 22.8
2020-Jul-08 06:50 214 22.8
2020-Jul-08 06:40 214 23.3
2020-Jul-08 06:29 214 23.3
2020-Jul-08 06:19 214 23.3
2020-Jul-08 06:09 214 23.3
2020-Jul-08 05:59 214 23.3
2020-Jul-08 05:49 214 23.3
2020-Jul-08 05:39 214 23.3
2020-Jul-08 05:29 214 23.3
2020-Jul-08 05:19 213 23.3
2020-Jul-08 05:09 214 23.3
2020-Jul-08 04:59 214 23.3
2020-Jul-08 04:49 214 23.3
2020-Jul-08 04:39 214 23.3
2020-Jul-08 04:29 214 23.3
2020-Jul-08 04:19 215 23.3
2020-Jul-08 04:09 215 23.3